Location: Favalello
(42.2939°N, 9.2706°E)
Time: 15:05:31
(UTC+00:00)

SKYMED 2 - Pass Details

Date: 06 December 2019
Orbit: 621 x 623 km, 97.9° (Epoch: 20 January)

Event Time Altitude Azimuth Distance (km) Brightness Sun altitude
Exits shadow 17:05:34 11° 27° (NNE) 1,943 5.7 -13.5°
Maximum altitude 17:09:35 44° 99° (E) 870 3.9 -14.2°
Drops below altitude 10° 17:13:42 10° 171° (S) 1,985 6.3 -14.9°
Sets 17:15:58 0° 178° (S) 2,886 7.2 -15.3°
